Regional Weather Roundup
Issued by NWS

Home | Current Version | Previous Version | Graphics & Text | Print | Product List | Glossary On
Versions: 1 2 3 4 5 6 7 8 9 10 11 12 13 14 15 16 17 18 19 20 21 22 23 24 25 26 27 28 29 30 31 32 33 34 35 36 37 38 39 40 41 42 43 44 45 46 47 48 49 50
000
ASUS43 KMPX 282301
RWRMN
WEATHER ROUNDUP FOR MINNESOTA
NATIONAL WEATHER SERVICE TWIN CITIES/CHANHASSEN MN
600 PM CDT FRI AUG 28 2015


NOTE: "FAIR" INDICATES FEW OR NO CLOUDS BELOW 12,000 FEET WITH NO
SIGNIFICANT WEATHER AND/OR OBSTRUCTIONS TO VISIBILITY. N/A MEANS
CURRENT SKY AND/OR WEATHER CONDITIONS ARE NOT AVAILABLE.

MNZ060>063-068>070-290000-
   Twin Cities Metro

CITY           SKY/WX    TMP DP  RH WIND       PRES   REMARKS
TWIN CITIES    PTSUNNY   70  59  68 SE14      29.99F
ST PAUL        SUNNY     71  60  68 SE13      29.99F
CRYSTAL        MOSUNNY   73  59  61 S12       29.98S
LAKEVILLE      MOSUNNY   68  61  77 SE10      30.00F
EDEN PRAIRIE   MOSUNNY   72  59  63 S15G21    29.99S
SOUTH ST PAUL  MOSUNNY   71  58  63 S10G17    29.99F
LAKE ELMO      PTSUNNY   72  61  68 S13       30.01F
$$
MNZ001>005-007-008-013>017-022>024-027-028-290000-
   Northwest Minnesota

CITY           SKY/WX    TMP DP  RH WIND       PRES   REMARKS
BEMIDJI        SUNNY     77  65  65 SW10G17   29.90S
HALLOCK        MOSUNNY   84  68  58 W7        29.79R
ROSEAU         PTSUNNY   81  72  74 SW7       29.83S
WARROAD        PTSUNNY   79  72  78 CALM      29.83F
THIEF RVR FALL SUNNY    N/A N/A N/A S12G18    29.85R
CROOKSTON      MOSUNNY   81  66  61 SW20G25   29.85S
FOSSTON        SUNNY     79  64  61 S17       29.89S
DETROIT LAKES  SUNNY     77  64  65 SW12      29.93S
MOORHEAD       SUNNY     81  66  61 S10       29.89S
PARK RAPIDS    PTSUNNY   79  64  60 S14       29.92S
MAHNOMEN       FAIR      77  66  68 SW14      29.90R
$$
MNZ006-009>011-018-025>026-290000-
   North Central Minnesota

CITY           SKY/WX    TMP DP  RH WIND       PRES   REMARKS
BAUDETTE       MOSUNNY   80  66  62 SW8       29.84S
FLAG ISLAND    PTSUNNY   72  66  83 SE3       29.82F
INTL FALLS     PTSUNNY   75  70  84 SW7       29.84F
WASKISH        PTSUNNY   79  66  65 SW6       29.87S
BIG FORK       SUNNY     79  66  65 SW8       29.91R
LONGVILLE      SUNNY     77  63  61 S8        29.93R
GRAND RAPIDS     N/A     75  63  64 SW10      29.93R
CRANE LAKE     PTSUNNY   75  68  78 CALM      29.91S
ORR            PTSUNNY   79  64  61 CALM      29.88S
COOK           PTSUNNY   79  64  61 SW8       29.91S
WALKER         MOCLDY    77  63  61 SW10      29.91R
$$
MNZ012-019>021-037-290000-
   Northeast Minnesota

CITY           SKY/WX    TMP DP  RH WIND       PRES   REMARKS
DULUTH         MOSUNNY   76  63  64 SW15      29.94S
ELY            PTSUNNY   75  66  73 CALM      29.91S
HIBBING        MOSUNNY   77  63  61 SW9G20    29.93R
EVELETH        MOSUNNY   77  63  61 SW10G16   29.93R
DULUTH HARBOR  SUNNY     79  66  65 SW12G18   29.92R
TWO HARBORS    MOSUNNY   79  68  69 SW12      29.91R
SILVER BAY     PTSUNNY   79  64  61 S9G18     29.90R
GRAND MARAIS     N/A     57  54  89 CALM      29.91S
G MARAIS ARPRT PTSUNNY   66  61  82 SW6       29.96R
$$
MNZ029>031-032-039>041-046>048-054>057-064-290000-
   West Central Minnesota

CITY           SKY/WX    TMP DP  RH WIND       PRES   REMARKS
FERGUS FALLS   MOSUNNY   75  64  69 S9        29.92S
WHEATON        SUNNY     73  63  68 S8        29.95S
MORRIS         MOSUNNY   75  64  69 S6        29.96S
ALEXANDRIA     MOSUNNY   75  63  66 S12       29.98S
ELBOW LAKE     FAIR      76  65  69 S14       29.95S
WADENA         MOSUNNY   75  63  64 SW12      29.95R
GLENWOOD       SUNNY     73  63  68 S12       29.99S
APPLETON       MOSUNNY   75  63  64 S8        29.96R
BENSON         CLOUDY    73  61  64 S9        29.98R
ORTONVILLE     MOSUNNY   75  63  64 S8        29.96R
MADISON        SUNNY     73  63  68 S8        29.97R
WILLMAR        FAIR      72  63  73 SE8       29.99R
$$
MNZ033>034-036-042>043-049>051-058-059-290000-
   Central Minnesota

CITY           SKY/WX    TMP DP  RH WIND       PRES   REMARKS
ST CLOUD       MOSUNNY   75  63  66 S13       29.97S
SAUK CENTRE    FAIR      73  63  69 S9        29.97S
PAYNESVILLE    MOSUNNY   72  61  67 E9        29.99R
AITKIN         SUNNY     77  63  61 SW8       29.94R
PINE RIVER     MOSUNNY   75  64  69 S10       29.97R
BRAINERD       SUNNY     77  61  57 SW13      29.95R
STAPLES        SUNNY     75  61  60 S10       29.95R
LONG PRAIRIE   FAIR      73  63  68 S10       29.97S
LITTLE FALLS   MOSUNNY   75  59  57 S8        29.96S
LITCHFIELD     SUNNY     72  63  73 SE8       29.99S
BUFFALO        MOSUNNY   72  60  65 S9        29.99F
MAPLE LAKE     SUNNY     73  64  75 S3        29.99F
$$
MNZ037-044-045-052-053-290000-
   East Central Minnesota

CITY           SKY/WX    TMP DP  RH WIND       PRES   REMARKS
PRINCETON      MOSUNNY   77  63  61 S9        29.97S
MORA           MOSUNNY   73  59  60 S12       29.99R
CAMBRIDGE      SUNNY     77  63  61 S13G18    29.96S
RUSH CITY      SUNNY     74  62  65 S8        29.98S
MOOSE LAKE     MOSUNNY   73  61  64 SW9       29.94R
HINCKLEY       FAIR      75  61  60 S13G21    29.96S
CLOQUET        SUNNY     75  61  60 SW10      29.95S
MCGREGOR       SUNNY     77  61  57 SW9       29.95R
$$
MNZ071>073-080-081-089-090-097-098-290000-
   Southwest Minnesota

CITY           SKY/WX    TMP DP  RH WIND       PRES   REMARKS
MONTEVIDEO     MOSUNNY   77  64  65 S7        29.99R
GRANITE FALLS  MOSUNNY   71  62  71 SE5       29.99S
CANBY          SUNNY     73  62  69 SE9       29.98S
MARSHALL       PTSUNNY   68  57  68 SE13      29.99R
REDWOOD FALLS  MOSUNNY   70  59  68 SE9       29.98S
OLIVIA         MOSUNNY   68  57  68 SE8       29.98R
PIPESTONE      CLOUDY    68  61  77 E7        29.98S
WINDOM         CLOUDY    64  57  77 E10       29.98S
WORTHINGTON    CLOUDY    63  55  77 E12       29.98S
JACKSON        CLOUDY    63  57  82 E13       29.98S
TRACY          PTSUNNY   68  61  78 E7        29.99R
SLAYTON        CLOUDY    65  59  81 CALM      29.99F
$$
MNZ065>067-074>077-082>085-091>093-290000-
   South Central Minnesota

CITY           SKY/WX    TMP DP  RH WIND       PRES   REMARKS
MANKATO        SUNNY     66  55  68 SE13      29.99F
NEW ULM        MOSUNNY   68  55  64 SE13      29.97F
ST JAMES       CLOUDY    66  57  72 E10       29.99S
FAIRMONT       CLOUDY    63  54  72 E12       29.98R
GLENCOE        SUNNY     72  61  68 SE9       29.99R
FARIBAULT      SUNNY     66  57  72 SE15G21   30.02S
OWATONNA       PTSUNNY   64  57  77 E13       30.01S
WASECA         CLOUDY    63  55  77 MISG      30.02R
ALBERT LEA     CLOUDY    61  57  88 E14       29.98S
$$
MNZ078>079-086>088-094>096-290000-
   Southeast Minnesota

CITY           SKY/WX    TMP DP  RH WIND       PRES   REMARKS
ROCHESTER      CLOUDY    59  57  93 E15       30.02F
RED WING       CLOUDY    64  57  77 SE10      30.02F
STANTON        CLOUDY    69  59  70 SE7       30.00F
DODGE CENTER   PTSUNNY   61  55  82 E9        30.03R
WINONA         CLOUDY    61  59  94 E7        30.05S
AUSTIN         CLOUDY    61  55  82 E15G21    29.99S
PRESTON        CLOUDY    58  54  88 E12G20    30.03S
$$
ABBREVIATIONS USED IN REMARKS
   TC - TEMPERATURES IN CELSIUS
  WCI - WIND CHILL INDEX
   HX - HEAT INDEX
  VSB - VISIBILITY
$$



USA.gov is the U.S. government's official web portal to all federal, state and local government web resources and services.